Current weather by "City, St" or "zip code"  
 
Advertise Here

Current Conditions: St. Louis Lambert International Airport, MO

Light Snow Fog/Mist


30.0 F

Last Updated on Jan 27 2021, 12:51 pm CST
Humidity: 85%
Wind Speed: N 15.0 mph
Barometer 30.31 in
Dewpoint: 26.1 F
Visibility: 0.75 mi
Precip: 00.05 in
Heat Index: NA
Wind Chill: 19 F
Current conditions at:

St. Louis Lambert International Airport, MO (KSTL)

Lat: 38.7525 Lon: 90.37361

Local Radar Image active severe weather and emergency alerts image image weather storm and storm spotter reports image weather observation monitoring service image
Local
Radar
Active
Alerts
Storm Reports Obs
Monitoring

Sign-up For Email & Text Message Weather Alert Notification Services


Advertise Here

Observation History for St. Louis Lambert International Airport, MO


Time Wind
(mph)
Vis
(mi)
Weather Precip (in) Temperature (F) Relative
Humidity
Wind
Chill
(F)
Heat
Index
(F)
Pressure
Air Dwpt altimeter
(in)
sea level
(mb)
Rmks
12:51 pm CST N 15.0 0.75 Light Snow Fog/Mist 00.05 30.0 26.1 85% 19 NA 30.31 1027.4
11:51 am CST NW 10.4 0.50 Snow Freezing Fog -- 29.0 26.1 89% 20 NA 30.31 1027.7
10:51 am CST NW 9.2 0.25 Heavy Snow Freezing Fog 00.07 30.0 27.0 88% 22 NA 30.31 1027.7
9:51 am CST NW 9.2 0.75 Light Snow Fog/Mist 00.02 30.0 27.0 88% 22 NA 30.28 1026.5
8:51 am CST NE 6.9 1.00 Light Snow Fog/Mist 00.01 30.0 26.1 85% 23 NA 30.22 1024.4
7:51 am CST NE 6.9 2.00 Light Snow Fog/Mist 00.02 29.0 25.0 85% 22 NA 30.21 1024.2
6:51 am CST NE 6.9 4.00 Light Snow Trace 30.0 25.0 82% 23 NA 30.22 1024.5
5:51 am CST NE 8.1 10.00 Overcast -- 30.0 25.0 82% 22 NA 30.22 1024.4
4:51 am CST NE 4.6 10.00 Overcast -- 30.0 24.1 79% 25 NA 30.22 1024.5
3:51 am CST NE 5.8 10.00 Overcast -- 31.0 24.1 76% 25 NA 30.21 1024.2
2:51 am CST NE 5.8 10.00 Overcast -- 30.0 24.1 79% 24 NA 30.19 1023.4
1:51 am CST NE 9.2 10.00 Overcast -- 30.0 25.0 82% 22 NA 30.17 1022.4
12:51 am CST N 9.2 9.00 Overcast Trace 30.0 25.0 82% 22 NA 30.19 1023.2
11:51 pm CST N 4.6 10.00 Light Snow Trace 30.0 24.1 79% 25 NA 30.21 1023.9
10:51 pm CST NE 3.5 10.00 Overcast -- 30.0 24.1 79% NA NA 30.20 1023.5
9:51 pm CST N 9.2 10.00 Overcast -- 30.0 24.1 79% 22 NA 30.18 1023.0
8:51 pm CST N 8.1 10.00 Overcast -- 30.0 24.1 79% 22 NA 30.17 1022.6
7:51 pm CST N 10.4 10.00 Overcast -- 31.0 25.0 79% 22 NA 30.14 1021.6
6:51 pm CST N 10.4 10.00 Overcast -- 31.0 25.0 79% 22 NA 30.11 1020.7
5:51 pm CST NW 8.1 G 17.3 10.00 Overcast -- 32.0 26.1 79% 25 NA 30.10 1020.3
4:51 pm CST NW 8.1 10.00 Overcast -- 32.0 25.0 75% 25 NA 30.08 1019.5
3:51 pm CST NW 12.7 10.00 Overcast -- 33.0 26.1 75% 24 NA 30.06 1018.7
2:51 pm CST W 13.8 10.00 Overcast -- 33.0 27.0 78% 23 NA 30.03 1017.8
1:51 pm CST W 11.5 10.00 Overcast -- 35.0 28.0 76% 27 NA 30.00 1016.7

Regional Weather Observation


St. Louis Lambert International Airport, MO (KSTL)

Light Snow Fog/Mist
30.0 F

St. Louis Regional Airport, IL (KALN)

Light Snow
28.0 F

St. Louis, Spirit Of St. Louis Airport, MO (KSUS)

Light Snow
29.0 F

St. Louis Downtown Airport, IL (KCPS)

Light Snow Fog/Mist
30.0 F

Pittsfield, Pittsfield Penstone Municipal Airport, IL (KPPQ)

Overcast
24.0 F

Washington Regional Airport, MO (KFYG)

Light Snow
30.0 F